TimePDT,TemperatureF,Dew PointF,Humidity,Sea Level PressureIn,VisibilityMPH,Wind Direction,Wind SpeedMPH,Gust SpeedMPH,PrecipitationIn,Events,Conditions,WindDirDegrees,DateUTC
12:56 AM,55.9,51.1,84,30.07,10.0,WNW,12.7,-,N/A,,Scattered Clouds,300,2014-04-09 07:56:00
1:56 AM,54.0,51.1,90,30.07,10.0,WNW,15.0,-,N/A,,Scattered Clouds,290,2014-04-09 08:56:00
2:56 AM,53.1,51.1,93,30.07,10.0,WNW,16.1,-,N/A,,Scattered Clouds,290,2014-04-09 09:56:00
3:56 AM,53.1,51.1,93,30.06,10.0,WNW,13.8,-,N/A,,Clear,290,2014-04-09 10:56:00
4:56 AM,53.1,50.0,89,30.06,10.0,WNW,13.8,-,N/A,,Clear,290,2014-04-09 11:56:00
5:56 AM,52.0,50.0,93,30.07,10.0,WNW,11.5,-,N/A,,Scattered Clouds,290,2014-04-09 12:56:00
6:56 AM,52.0,50.0,93,30.08,10.0,WNW,11.5,-,N/A,,Mostly Cloudy,300,2014-04-09 13:56:00
7:56 AM,54.0,51.1,90,30.10,10.0,WNW,12.7,-,N/A,,Mostly Cloudy,290,2014-04-09 14:56:00
8:56 AM,54.0,50.0,86,30.09,10.0,NW,6.9,-,N/A,,Mostly Cloudy,310,2014-04-09 15:56:00
9:56 AM,57.9,51.1,78,30.09,10.0,Variable,3.5,-,N/A,,Mostly Cloudy,0,2014-04-09 16:56:00
10:56 AM,61.0,52.0,72,30.10,10.0,Calm,Calm,-,N/A,,Partly Cloudy,0,2014-04-09 17:56:00
11:56 AM,62.1,53.1,72,30.08,10.0,NNE,5.8,-,N/A,,Mostly Cloudy,30,2014-04-09 18:56:00
12:56 PM,63.0,53.1,70,30.07,10.0,NNW,10.4,-,N/A,,Mostly Cloudy,330,2014-04-09 19:56:00
1:56 PM,61.0,52.0,72,30.05,10.0,NW,17.3,-,N/A,,Scattered Clouds,310,2014-04-09 20:56:00
2:56 PM,61.0,51.1,70,30.04,10.0,WNW,24.2,-,N/A,,Scattered Clouds,290,2014-04-09 21:56:00
3:56 PM,62.1,51.1,67,30.02,10.0,NW,18.4,-,N/A,,Scattered Clouds,310,2014-04-09 22:56:00
4:56 PM,61.0,51.1,70,30.01,10.0,WNW,21.9,-,N/A,,Scattered Clouds,290,2014-04-09 23:56:00
5:56 PM,57.9,50.0,75,30.00,10.0,WNW,21.9,-,N/A,,Scattered Clouds,300,2014-04-10 00:56:00
6:56 PM,55.9,50.0,80,29.99,10.0,WNW,20.7,-,N/A,,Mostly Cloudy,290,2014-04-10 01:56:00
7:56 PM,54.0,50.0,86,30.00,10.0,WNW,18.4,-,N/A,,Mostly Cloudy,300,2014-04-10 02:56:00
8:56 PM,53.1,50.0,89,30.02,10.0,WNW,17.3,-,N/A,,Mostly Cloudy,300,2014-04-10 03:56:00
9:56 PM,52.0,48.9,89,30.04,10.0,WNW,16.1,-,N/A,,Scattered Clouds,290,2014-04-10 04:56:00
10:56 PM,52.0,50.0,93,30.04,10.0,West,13.8,-,N/A,,Scattered Clouds,280,2014-04-10 05:56:00
11:56 PM,52.0,50.0,93,30.04,10.0,WNW,9.2,-,N/A,,Partly Cloudy,290,2014-04-10 06:56:00